"Pseudo-MPEC" for P12pBc8

Created 2026 Sep 5 9:35:08 UT using Find_Orb

Click here for an explanation of pseudo-MPECs

 
 Astrometry: 
     P12pBc8*0C2026 09 04.34687721 56 16.247-43 56 31.72   ~949o 21.26wXNEOCPF51
     P12pBc8 0C2026 09 04.35537821 56 15.861-43 56 24.29   ~949o 21.67wXNEOCPF51
     P12pBc8 0C2026 09 04.36388721 56 15.472-43 56 17.03   ~949o 21.82wXNEOCPF51
     P12pBc8 0C2026 09 04.41025521 56 13.338-43 55 36.51   ~94MK 20.58GVNEOCPF51
     P12pBc8 0C2026 09 04.41090421 56 13.309-43 55 35.76   ~94MK 20.68GVNEOCPF51

Station data:
(F51) Pan-STARRS 1, Haleakala  (N20.707234 W156.255910)  US/Hawaii.
   Observers J. Herman, T. Lowe, P. Minguez, A. Schultz, I. Smith. Measurers
   K. Chambers, T. de Boer, J. Fairlamb, H. Gao, M. Huber, C.-C. Lin, E.
   Magnier, Y. Ramanjooloo, R. Wainscoat, R. Weryk. 1.8-m Ritchey-Chrétien +
   CCD.

Orbital elements:  P12pBc8
   Perihelion 2026 Jun 12.246208 +/- 59.5 TT =  5:54:32.3 (JD 2461203.746208)
Epoch 2026 Sep  4.0 TT = JDT 2461287.5   Earth MOID: 0.0682   Ju: 0.4973
M   3.865032702 +/- 24              Ve: 0.0909                   AutoNEOCP
n   0.046147554 +/- 0.147           Peri.  124.157028 +/- 110
a   7.697864340 +/- 16.4            Node   107.356654 +/- 49
e   0.90976946 +/- 0.251            Incl.   17.300344 +/- 6
P  21.35774                H 19.87  G  0.15   U 11.5  SR
q 0.694582383 +/- 0.585    Q 14.70114629 +/- 58.9         (J2000 ecliptic)
From 5 observations 2026 Sept. 4 (92.2 min); mean residual 0".05
Residuals in arcseconds: 
260904 F51  .03-  .02-    260904 F51  .03+  .04-    260904 F51  .00   .09+    
260904 F51  .01+  .07+    260904 F51  .01-  .09-    

Ephemerides (geocentric):
Date (UTC) HH   RA             Dec           delta  r     elong  mag " sig PA
---- --------  ------------   ------------  ------ ------ -----  --- --------
2026 09 05 10  21 55 35.936   -43 40 44.75  .71926 1.6309 140.9 21.3  137  97
2026 09 05 11  21 55 34.459   -43 40 08.39  .71996 1.6314 140.9 21.3  142  97
2026 09 05 12  21 55 32.988   -43 39 32.03  .72068 1.6320 140.9 21.3  148  96
2026 09 05 13  21 55 31.523   -43 38 55.68  .72139 1.6326 140.9 21.3  154  96
2026 09 05 14  21 55 30.064   -43 38 19.34  .72210 1.6331 140.8 21.3  159  95
2026 09 05 15  21 55 28.611   -43 37 43.01  .72281 1.6337 140.8 21.3  165  95
2026 09 05 16  21 55 27.164   -43 37 06.68  .72352 1.6342 140.8 21.3  170  95
2026 09 05 17  21 55 25.723   -43 36 30.36  .72423 1.6348 140.8 21.3  176  94
2026 09 05 18  21 55 24.288   -43 35 54.04  .72494 1.6353 140.8 21.3  181  94
2026 09 05 19  21 55 22.858   -43 35 17.73  .72565 1.6359 140.8 21.3  187  94
2026 09 05 20  21 55 21.435   -43 34 41.43  .72636 1.6364 140.7 21.3  193  93
2026 09 05 21  21 55 20.017   -43 34 05.14  .72708 1.6370 140.7 21.3  198  93
2026 09 05 22  21 55 18.605   -43 33 28.85  .72779 1.6375 140.7 21.3  204  93
2026 09 05 23  21 55 17.199   -43 32 52.57  .72850 1.6381 140.7 21.3  210  92
2026 09 06 00  21 55 15.799   -43 32 16.29  .72922 1.6386 140.7 21.3  215  92
2026 09 06 01  21 55 14.405   -43 31 40.03  .72993 1.6392 140.6 21.4  221  92
2026 09 06 02  21 55 13.016   -43 31 03.77  .73064 1.6398 140.6 21.4  227  92
2026 09 06 03  21 55 11.634   -43 30 27.51  .73136 1.6403 140.6 21.4  232  91
2026 09 06 04  21 55 10.257   -43 29 51.27  .73207 1.6409 140.6 21.4  238  91
2026 09 06 05  21 55 08.886   -43 29 15.02  .73278 1.6414 140.6 21.4  244  91
2026 09 06 06  21 55 07.521   -43 28 38.79  .73350 1.6420 140.5 21.4  250  91
2026 09 06 07  21 55 06.161   -43 28 02.56  .73421 1.6425 140.5 21.4  255  90
2026 09 06 08  21 55 04.807   -43 27 26.34  .73493 1.6431 140.5 21.4  261  90
2026 09 06 09  21 55 03.459   -43 26 50.13  .73564 1.6436 140.5 21.4  267  90
2026 09 06 10  21 55 02.117   -43 26 13.92  .73636 1.6442 140.5 21.4  273  90
2026 09 06 11  21 55 00.781   -43 25 37.72  .73708 1.6447 140.5 21.4  279  89
2026 09 06 12  21 54 59.450   -43 25 01.53  .73779 1.6453 140.4 21.4  284  89
2026 09 06 13  21 54 58.125   -43 24 25.34  .73851 1.6458 140.4 21.4  290  89
2026 09 06 14  21 54 56.806   -43 23 49.16  .73922 1.6464 140.4 21.4  296  89
2026 09 06 15  21 54 55.492   -43 23 12.99  .73994 1.6469 140.4 21.4  302  89
2026 09 06 16  21 54 54.184   -43 22 36.82  .74066 1.6475 140.4 21.4  308  88
2026 09 06 17  21 54 52.882   -43 22 00.66  .74137 1.6481 140.3 21.4  314  88
2026 09 06 18  21 54 51.585   -43 21 24.51  .74209 1.6486 140.3 21.4  319  88
2026 09 06 19  21 54 50.294   -43 20 48.36  .74281 1.6492 140.3 21.4  325  88
2026 09 06 20  21 54 49.009   -43 20 12.22  .74353 1.6497 140.3 21.4  331  88
2026 09 06 21  21 54 47.729   -43 19 36.09  .74425 1.6503 140.3 21.4  337  87
2026 09 06 22  21 54 46.455   -43 18 59.96  .74496 1.6508 140.2 21.4  343  87
2026 09 06 23  21 54 45.187   -43 18 23.84  .74568 1.6514 140.2 21.4  349  87
2026 09 07 00  21 54 43.924   -43 17 47.73  .74640 1.6519 140.2 21.4  355  87
2026 09 07 01  21 54 42.667   -43 17 11.62  .74712 1.6525 140.2 21.4  361  87
2026 09 07 02  21 54 41.416   -43 16 35.52  .74784 1.6530 140.2 21.4  367  86
2026 09 07 03  21 54 40.170   -43 15 59.43  .74856 1.6536 140.1 21.4  373  86
2026 09 07 04  21 54 38.930   -43 15 23.34  .74928 1.6541 140.1 21.4  379  86
2026 09 07 05  21 54 37.695   -43 14 47.26  .75000 1.6547 140.1 21.4  385  86
2026 09 07 06  21 54 36.466   -43 14 11.18  .75072 1.6552 140.1 21.4  391  86
2026 09 07 07  21 54 35.242   -43 13 35.12  .75144 1.6558 140.1 21.4  397  85
2026 09 07 08  21 54 34.024   -43 12 59.05  .75216 1.6563 140.0 21.4  403  85
2026 09 07 09  21 54 32.811   -43 12 23.00  .75288 1.6569 140.0 21.4  409  85